Time,TemperatureF,DewpointF,PressureIn,WindDirection,WindDirectionDegrees,WindSpeedMPH,WindSpeedGustMPH,Humidity,HourlyPrecipIn,Conditions,Clouds,dailyrainin,SoftwareType,DateUTC
2013-10-29 00:14:00,42.0,36.0,30.32,NW,326,0.0,0.0,80,0.00,,,0.00,,2013-10-29 04:14:00,
2013-10-29 00:24:00,42.0,37.0,30.33,NW,326,0.0,0.0,81,0.00,,,0.00,,2013-10-29 04:24:00,
2013-10-29 00:44:00,41.0,36.0,30.33,NW,326,0.0,0.0,83,0.00,,,0.00,,2013-10-29 04:44:00,
2013-10-29 00:57:00,41.0,36.0,30.33,NW,326,0.0,0.0,83,0.00,,,0.00,,2013-10-29 04:57:00,
2013-10-29 01:19:00,40.0,36.0,30.34,NW,326,0.0,0.0,84,0.00,,,0.00,,2013-10-29 05:19:00,
2013-10-29 01:45:00,40.0,36.0,30.34,NW,326,0.0,0.0,87,0.00,,,0.00,,2013-10-29 05:45:00,
2013-10-29 01:52:00,40.0,36.0,30.34,NW,326,0.0,0.0,87,0.00,,,0.00,,2013-10-29 05:52:00,
2013-10-29 02:16:00,40.0,36.0,30.34,NW,326,0.0,0.0,87,0.00,,,0.00,,2013-10-29 06:16:00,
2013-10-29 02:26:00,41.0,37.0,30.34,NW,326,0.0,0.0,86,0.00,,,0.00,,2013-10-29 06:26:00,
2013-10-29 02:43:00,42.0,37.0,30.34,NW,326,0.0,0.0,83,0.00,,,0.00,,2013-10-29 06:43:00,
2013-10-29 02:52:00,42.0,37.0,30.34,NW,326,0.0,0.0,81,0.00,,,0.00,,2013-10-29 06:52:00,
2013-10-29 03:11:00,42.0,35.0,30.35,NW,326,0.0,0.0,76,0.00,,,0.00,,2013-10-29 07:11:00,
2013-10-29 03:25:00,42.0,34.0,30.35,NW,326,0.0,0.0,73,0.00,,,0.00,,2013-10-29 07:25:00,
2013-10-29 03:44:00,43.0,34.0,30.35,NW,326,0.0,0.0,69,0.00,,,0.00,,2013-10-29 07:44:00,
2013-10-29 03:55:00,43.0,34.0,30.35,NW,326,0.0,0.0,69,0.00,,,0.00,,2013-10-29 07:55:00,
2013-10-29 04:13:00,43.0,33.0,30.35,NW,326,0.0,0.0,67,0.00,,,0.00,,2013-10-29 08:13:00,
2013-10-29 04:24:00,43.0,33.0,30.35,NW,326,0.0,0.0,67,0.00,,,0.00,,2013-10-29 08:24:00,
2013-10-29 04:42:00,43.0,33.0,30.35,NW,326,0.0,0.0,67,0.00,,,0.00,,2013-10-29 08:42:00,
2013-10-29 04:52:00,43.0,33.0,30.36,NW,326,0.0,0.0,67,0.00,,,0.00,,2013-10-29 08:52:00,
2013-10-29 05:11:00,42.0,33.0,30.37,NW,326,0.0,0.0,69,0.00,,,0.00,,2013-10-29 09:11:00,
2013-10-29 05:22:00,42.0,33.0,30.37,NW,326,0.0,0.0,70,0.00,,,0.00,,2013-10-29 09:22:00,
2013-10-29 05:43:00,41.0,33.0,30.37,NW,326,0.0,0.0,72,0.00,,,0.00,,2013-10-29 09:43:00,
2013-10-29 05:53:00,40.0,32.0,30.38,NW,326,0.0,0.0,73,0.00,,,0.00,,2013-10-29 09:53:00,
2013-10-29 06:13:00,40.0,32.0,30.38,NW,326,0.0,0.0,74,0.00,,,0.00,,2013-10-29 10:13:00,
2013-10-29 06:23:00,40.0,32.0,30.39,NW,326,0.0,0.0,74,0.00,,,0.00,,2013-10-29 10:23:00,
2013-10-29 06:42:00,40.0,33.0,30.39,NW,326,0.0,0.0,75,0.00,,,0.00,,2013-10-29 10:42:00,
2013-10-29 06:53:00,40.0,33.0,30.39,NW,326,0.0,0.0,76,0.00,,,0.00,,2013-10-29 10:53:00,
2013-10-29 07:12:00,39.0,33.0,30.39,NW,326,0.0,0.0,79,0.00,,,0.00,,2013-10-29 11:12:00,
2013-10-29 07:22:00,39.0,33.0,30.39,NW,326,0.0,0.0,80,0.00,,,0.00,,2013-10-29 11:22:00,
2013-10-29 07:42:00,38.0,33.0,30.40,NW,326,0.0,0.0,81,0.00,,,0.00,,2013-10-29 11:42:00,
2013-10-29 07:52:00,38.0,33.0,30.40,NW,326,0.0,0.0,82,0.00,,,0.00,,2013-10-29 11:52:00,
2013-10-29 08:12:00,38.0,34.0,30.40,NW,326,0.0,0.0,84,0.00,,,0.00,,2013-10-29 12:12:00,
2013-10-29 08:21:00,38.0,34.0,30.40,NW,326,0.0,0.0,84,0.00,,,0.00,,2013-10-29 12:21:00,
2013-10-29 08:52:00,38.0,33.0,30.41,NW,326,0.0,0.0,82,0.00,,,0.00,,2013-10-29 12:52:00,
2013-10-29 09:11:00,40.0,33.0,30.42,NW,326,0.0,0.0,75,0.00,,,0.00,,2013-10-29 13:11:00,
2013-10-29 09:22:00,41.0,32.0,30.42,NW,326,0.0,0.0,71,0.00,,,0.00,,2013-10-29 13:22:00,
2013-10-29 09:42:00,43.0,33.0,30.42,NW,326,0.0,0.0,67,0.00,,,0.00,,2013-10-29 13:42:00,
2013-10-29 09:52:00,43.0,32.0,30.42,NW,326,0.0,0.0,66,0.00,,,0.00,,2013-10-29 13:52:00,
2013-10-29 10:12:00,45.0,34.0,30.42,NW,326,0.0,0.0,64,0.00,,,0.00,,2013-10-29 14:12:00,
2013-10-29 10:22:00,45.0,33.0,30.42,NW,326,0.0,0.0,63,0.00,,,0.00,,2013-10-29 14:22:00,
2013-10-29 10:42:00,45.0,32.0,30.42,NW,326,0.0,0.0,61,0.00,,,0.00,,2013-10-29 14:42:00,
2013-10-29 10:52:00,46.0,33.0,30.41,NW,326,0.0,0.0,60,0.00,,,0.00,,2013-10-29 14:52:00,
2013-10-29 11:11:00,47.0,33.0,30.41,NW,326,0.0,0.0,57,0.00,,,0.00,,2013-10-29 15:11:00,
2013-10-29 11:22:00,48.0,34.0,30.41,NW,326,0.0,0.0,59,0.00,,,0.00,,2013-10-29 15:22:00,
2013-10-29 11:44:00,49.0,34.0,30.41,NW,326,0.0,0.0,57,0.00,,,0.00,,2013-10-29 15:44:00,
2013-10-29 11:54:00,50.0,35.0,30.41,NW,326,0.0,0.0,57,0.00,,,0.00,,2013-10-29 15:54:00,
2013-10-29 12:13:00,50.0,34.0,30.40,NW,326,0.0,0.0,55,0.00,,,0.00,,2013-10-29 16:13:00,
2013-10-29 12:23:00,51.0,35.0,30.41,NW,326,0.0,0.0,54,0.00,,,0.00,,2013-10-29 16:23:00,
2013-10-29 12:43:00,52.0,36.0,30.40,NW,326,0.0,0.0,54,0.00,,,0.00,,2013-10-29 16:43:00,
2013-10-29 12:53:00,53.0,35.0,30.40,NW,326,0.0,0.0,51,0.00,,,0.00,,2013-10-29 16:53:00,
2013-10-29 13:12:00,54.0,36.0,30.38,NW,326,0.0,0.0,50,0.00,,,0.00,,2013-10-29 17:12:00,
2013-10-29 13:22:00,55.0,35.0,30.38,NW,326,0.0,0.0,46,0.00,,,0.00,,2013-10-29 17:22:00,
2013-10-29 13:42:00,56.0,36.0,30.37,NW,326,0.0,0.0,46,0.00,,,0.00,,2013-10-29 17:42:00,
2013-10-29 13:52:00,55.0,35.0,30.37,NW,326,0.0,0.0,47,0.00,,,0.00,,2013-10-29 17:52:00,
2013-10-29 14:12:00,55.0,36.0,30.36,NW,326,0.0,0.0,48,0.00,,,0.00,,2013-10-29 18:12:00,
2013-10-29 14:22:00,55.0,35.0,30.36,NW,326,0.0,0.0,47,0.00,,,0.00,,2013-10-29 18:22:00,
2013-10-29 14:42:00,54.0,34.0,30.36,NW,326,0.0,0.0,46,0.00,,,0.00,,2013-10-29 18:42:00,
2013-10-29 14:52:00,54.0,33.0,30.36,NW,326,0.0,0.0,45,0.00,,,0.00,,2013-10-29 18:52:00,
2013-10-29 15:11:00,56.0,35.0,30.35,NW,326,0.0,0.0,45,0.00,,,0.00,,2013-10-29 19:11:00,
2013-10-29 15:22:00,56.0,35.0,30.35,NW,326,0.0,0.0,45,0.00,,,0.00,,2013-10-29 19:22:00,
2013-10-29 15:42:00,57.0,34.0,30.35,NW,326,0.0,0.0,42,0.00,,,0.00,,2013-10-29 19:42:00,
2013-10-29 15:53:00,57.0,35.0,30.36,NW,326,0.0,0.0,44,0.00,,,0.00,,2013-10-29 19:53:00,
2013-10-29 16:12:00,55.0,32.0,30.36,NW,326,0.0,0.0,42,0.00,,,0.00,,2013-10-29 20:12:00,
2013-10-29 16:22:00,54.0,31.0,30.36,NW,326,0.0,0.0,42,0.00,,,0.00,,2013-10-29 20:22:00,
2013-10-29 16:42:00,54.0,32.0,30.36,NW,326,0.0,0.0,43,0.00,,,0.00,,2013-10-29 20:42:00,
2013-10-29 16:52:00,55.0,33.0,30.36,NW,326,0.0,0.0,43,0.00,,,0.00,,2013-10-29 20:52:00,
2013-10-29 17:12:00,54.0,33.0,30.36,NW,326,0.0,0.0,44,0.00,,,0.00,,2013-10-29 21:12:00,
2013-10-29 17:22:00,52.0,32.0,30.36,NW,326,0.0,0.0,46,0.00,,,0.00,,2013-10-29 21:22:00,
2013-10-29 17:54:00,50.0,32.0,30.36,NW,326,0.0,0.0,50,0.00,,,0.00,,2013-10-29 21:54:00,
2013-10-29 18:13:00,48.0,32.0,30.36,NW,326,0.0,0.0,53,0.00,,,0.00,,2013-10-29 22:13:00,
2013-10-29 18:23:00,48.0,32.0,30.35,NW,326,0.0,0.0,54,0.00,,,0.00,,2013-10-29 22:23:00,
2013-10-29 18:43:00,47.0,33.0,30.36,NW,326,0.0,0.0,57,0.00,,,0.00,,2013-10-29 22:43:00,
2013-10-29 18:53:00,47.0,33.0,30.36,NW,326,0.0,0.0,58,0.00,,,0.00,,2013-10-29 22:53:00,
2013-10-29 19:13:00,46.0,33.0,30.37,NW,326,0.0,0.0,61,0.00,,,0.00,,2013-10-29 23:13:00,
2013-10-29 19:22:00,46.0,33.0,30.37,NW,326,0.0,0.0,61,0.00,,,0.00,,2013-10-29 23:22:00,
2013-10-29 19:43:00,45.0,33.0,30.38,NW,326,0.0,0.0,62,0.00,,,0.00,,2013-10-29 23:43:00,
2013-10-29 19:53:00,45.0,33.0,30.38,NW,326,0.0,0.0,62,0.00,,,0.00,,2013-10-29 23:53:00,
2013-10-29 20:11:00,45.0,33.0,30.38,NW,326,0.0,0.0,63,0.00,,,0.00,,2013-10-30 00:11:00,
2013-10-29 20:22:00,45.0,34.0,30.38,NW,326,0.0,0.0,65,0.00,,,0.00,,2013-10-30 00:22:00,
2013-10-29 20:42:00,44.0,33.0,30.37,NW,326,0.0,0.0,66,0.00,,,0.00,,2013-10-30 00:42:00,
2013-10-29 20:52:00,43.0,33.0,30.37,NW,326,0.0,0.0,67,0.00,,,0.00,,2013-10-30 00:52:00,
2013-10-29 21:12:00,42.0,33.0,30.37,NW,326,0.0,0.0,69,0.00,,,0.00,,2013-10-30 01:12:00,
2013-10-29 21:22:00,42.0,33.0,30.37,NW,326,0.0,0.0,69,0.00,,,0.00,,2013-10-30 01:22:00,
2013-10-29 21:42:00,41.0,32.0,30.36,NW,326,0.0,0.0,71,0.00,,,0.00,,2013-10-30 01:42:00,
2013-10-29 21:52:00,41.0,33.0,30.37,NW,326,0.0,0.0,72,0.00,,,0.00,,2013-10-30 01:52:00,
2013-10-29 22:11:00,40.0,32.0,30.37,NW,326,0.0,0.0,74,0.00,,,0.00,,2013-10-30 02:11:00,
2013-10-29 22:22:00,40.0,33.0,30.37,NW,326,0.0,0.0,75,0.00,,,0.00,,2013-10-30 02:22:00,
2013-10-29 22:42:00,39.0,33.0,30.38,NW,326,0.0,0.0,78,0.00,,,0.00,,2013-10-30 02:42:00,
2013-10-29 22:52:00,39.0,33.0,30.38,NW,326,0.0,0.0,78,0.00,,,0.00,,2013-10-30 02:52:00,
2013-10-29 23:11:00,39.0,33.0,30.38,NW,326,0.0,0.0,79,0.00,,,0.00,,2013-10-30 03:11:00,
2013-10-29 23:22:00,39.0,33.0,30.37,NW,326,0.0,0.0,79,0.00,,,0.00,,2013-10-30 03:22:00,
2013-10-29 23:44:00,38.0,33.0,30.36,NW,326,0.0,0.0,81,0.00,,,0.00,,2013-10-30 03:44:00,
2013-10-29 23:54:00,38.0,33.0,30.36,NW,326,0.0,0.0,82,0.00,,,0.00,,2013-10-30 03:54:00,